Location: Casa Rossa
(45.2389°N, 12.2056°E)
Time: 04:11:19
(UTC+00:00)

Okean 1 - Pass Details

Date: 14 July 2020
Orbit: 538 x 555 km, 82.5° (Epoch: 11 August)

Event Time Altitude Azimuth Distance (km) Brightness Sun altitude
Rises 00:17:15 0° 352° (N) 2,706 8.0 -21.7°
Reaches altitude 10° 00:19:25 10° 353° (N) 1,811 6.9 -21.6°
Maximum altitude 00:23:24 83° 82° (E) 551 3.2 -21.4°
Enters shadow 00:23:49 70° 152° (SSE) 578 3.2 -21.4°
